Date String (YYYY-MM-DD hh:mm:ss) UTC,Instrument flags,Ambient pressure (hPa),Sample flow (lpm),Bypass flow (lpm),Sample temperature (°C),Ambient temperature (°C),ASC tube jacket temperature (°C),LED temperature (°C),Box temperature (°C),Sample RH (%),Span deviation,Mass concentration (μg/m³),Mass concentration (μg/m³),Mass concentration (μg/m³)
DateTimeUTC,F1_M11,P_M11,Q1_M11,Q2_M11,T1_M11,T2_M11,T3_M11,T4_M11,T5_M11,U1_M11,ZSPAN_M11,X2_M11,X0_M11,X1_M11
2023-03-12 04:00:00,,0821.5,5.00,0.00,21.8,19.6,00.0,30.8,23.3,11.0,0000.0,0001.34,0007.97,0000.51
2023-03-12 04:01:00,,0821.5,5.00,0.00,21.7,19.7,00.0,30.7,23.2,11.0,0000.0,0001.37,0007.88,0000.51
2023-03-12 04:02:00,,0821.5,5.01,0.00,21.8,20.8,00.0,30.7,23.5,11.0,0000.0,0001.35,0007.34,0000.52
2023-03-12 04:03:00,,0821.5,4.98,0.00,21.9,22.1,00.0,30.7,23.9,10.9,0000.0,0001.36,0006.66,0000.54
2023-03-12 04:04:00,,0821.6,5.02,0.00,22.1,22.7,00.0,30.7,24.1,10.8,0000.0,0001.31,0005.82,0000.54
2023-03-12 04:05:00,,0821.5,5.01,0.00,22.1,22.2,00.0,30.8,24.0,10.8,0000.0,0001.32,0004.64,0000.55
2023-03-12 04:06:00,,0821.6,4.99,0.00,22.1,21.7,00.0,30.8,23.9,10.9,0000.0,0001.34,0004.68,0000.55
2023-03-12 04:07:00,,0821.5,5.00,0.00,22.1,21.3,00.0,30.8,23.8,10.9,0000.0,0001.38,0005.03,0000.54
2023-03-12 04:08:00,,0821.6,4.99,0.00,22.1,21.0,00.0,30.8,23.7,11.0,0000.0,0001.38,0006.46,0000.55
2023-03-12 04:09:00,,0821.6,4.99,0.00,22.1,20.8,00.0,30.8,23.7,11.0,0000.0,0001.41,0005.87,0000.56
2023-03-12 04:10:00,,0821.7,5.01,0.00,22.0,20.7,00.0,30.8,23.7,11.0,0000.0,0001.42,0005.56,0000.56
2023-03-12 04:11:00,,0821.7,4.99,0.00,22.0,20.6,00.0,30.8,23.7,11.0,0000.0,0001.41,0005.83,0000.56
2023-03-12 04:12:00,,0821.7,5.00,0.00,22.0,20.5,00.0,30.8,23.7,11.0,0000.0,0001.38,0006.24,0000.56
2023-03-12 04:13:00,,0821.7,4.99,0.00,22.0,20.4,00.0,30.8,23.6,11.0,0000.0,0001.42,0007.14,0000.56
2023-03-12 04:14:00,,0821.7,5.00,0.00,22.0,20.3,00.0,30.8,23.6,11.1,0000.0,0001.37,0007.14,0000.55
2023-03-12 04:15:00,,0821.7,4.99,0.00,22.0,20.3,00.0,30.8,23.6,11.1,0000.0,0001.46,0007.44,0000.56
2023-03-12 04:16:00,,0821.8,5.00,0.00,22.0,20.4,00.0,30.8,23.6,11.0,0000.0,0001.51,0007.89,0000.56
2023-03-12 04:17:00,,0821.8,5.00,0.00,22.0,20.3,00.0,30.8,23.7,11.0,0000.0,0001.54,0007.92,0000.56
2023-03-12 04:18:00,,0821.8,5.01,0.00,22.0,20.3,00.0,30.8,23.6,11.1,0000.0,0001.55,0008.03,0000.57
2023-03-12 04:19:00,,0822.0,5.01,0.00,22.0,20.4,00.0,30.8,23.6,11.2,0000.0,0001.59,0007.67,0000.58
2023-03-12 04:20:00,,0821.9,5.00,0.00,22.0,20.4,00.0,30.8,23.6,11.2,0000.0,0001.63,0007.77,0000.57
2023-03-12 04:21:00,,0822.0,5.00,0.00,21.9,20.3,00.0,30.8,23.6,11.2,0000.0,0001.66,0007.92,0000.57
2023-03-12 04:22:00,,0822.0,5.00,0.00,21.9,20.3,00.0,30.8,23.6,11.2,0000.0,0001.64,0008.00,0000.58
2023-03-12 04:23:00,,0822.0,5.00,0.00,21.9,20.3,00.0,30.8,23.5,11.1,0000.0,0001.64,0007.97,0000.58
2023-03-12 04:24:00,,0822.0,5.00,0.00,21.9,20.3,00.0,30.7,23.5,11.1,0000.0,0001.64,0007.63,0000.58
2023-03-12 04:25:00,,0822.0,4.99,0.00,21.9,20.2,00.0,30.7,23.5,11.1,0000.0,0001.66,0007.58,0000.59
2023-03-12 04:26:00,,0822.0,5.00,0.00,21.9,20.2,00.0,30.7,23.5,11.1,0000.0,0001.57,0007.47,0000.58
2023-03-12 04:27:00,,0822.0,5.02,0.00,21.9,21.0,00.0,30.7,23.7,10.9,0000.0,0001.50,0006.67,0000.57
2023-03-12 04:28:00,,0822.1,4.99,0.00,22.1,22.2,00.0,30.7,24.0,10.9,0000.0,0001.53,0007.53,0000.57
2023-03-12 04:29:00,,0822.0,4.99,0.00,22.2,22.9,00.0,30.8,24.2,10.9,0000.0,0001.54,0007.75,0000.55
2023-03-12 04:30:00,,0822.0,4.97,0.00,22.3,22.5,00.0,30.8,24.2,10.9,0000.0,0001.54,0006.82,0000.54
2023-03-12 04:31:00,,0822.1,5.00,0.00,22.3,22.2,00.0,30.8,24.2,10.9,0000.0,0001.50,0006.64,0000.55
2023-03-12 04:32:00,,0822.1,4.99,0.00,22.3,21.8,00.0,30.9,24.1,11.0,0000.0,0001.47,0007.13,0000.55
2023-03-12 04:33:00,,0822.1,5.00,0.00,22.3,21.6,00.0,30.9,24.1,11.1,0000.0,0001.43,0007.63,0000.55
2023-03-12 04:34:00,,0822.1,5.01,0.00,22.3,21.4,00.0,30.9,24.1,11.1,0000.0,0001.45,0007.57,0000.54
2023-03-12 04:35:00,,0822.1,5.00,0.00,22.3,21.2,00.0,30.9,24.1,11.2,0000.0,0001.44,0008.28,0000.55
2023-03-12 04:36:00,,0822.1,5.00,0.00,22.3,21.1,00.0,30.9,24.1,11.5,0000.0,0001.47,0008.37,0000.56
2023-03-12 04:37:00,,0822.1,5.00,0.00,22.3,21.0,00.0,31.0,24.1,11.8,0000.0,0001.57,0008.44,0000.58
2023-03-12 04:38:00,,0822.1,5.00,0.00,22.3,21.0,00.0,31.0,24.0,11.9,0000.0,0001.61,0008.67,0000.59
2023-03-12 04:39:00,,0822.1,5.01,0.00,22.3,21.0,00.0,31.0,24.0,12.0,0000.0,0001.56,0008.46,0000.61
2023-03-12 04:40:00,,0822.1,5.01,0.00,22.3,20.9,00.0,31.0,24.0,12.1,0000.0,0001.49,0008.15,0000.63
2023-03-12 04:41:00,,0822.2,5.00,0.00,22.3,20.9,00.0,31.0,24.0,12.1,0000.0,0001.47,0008.54,0000.65
2023-03-12 04:42:00,,0822.2,5.00,0.00,22.3,20.9,00.0,31.0,24.0,12.2,0000.0,0001.49,0008.63,0000.66
2023-03-12 04:43:00,,0822.2,5.00,0.00,22.3,20.9,00.0,31.0,24.0,12.2,0000.0,0001.52,0008.36,0000.67
2023-03-12 04:44:00,,0822.2,5.01,0.00,22.3,20.8,00.0,31.0,24.0,12.2,0000.0,0001.53,0007.88,0000.68
2023-03-12 04:45:00,,0822.3,5.00,0.00,22.3,20.8,00.0,31.0,24.0,12.2,0000.0,0001.48,0007.47,0000.68
2023-03-12 04:46:00,,0822.3,5.01,0.00,22.3,20.8,00.0,31.0,24.0,12.2,0000.0,0001.46,0006.31,0000.68
2023-03-12 04:47:00,,0822.3,5.00,0.00,22.3,20.8,00.0,31.0,24.0,12.2,0000.0,0001.47,0007.31,0000.69
2023-03-12 04:48:00,,0822.4,4.99,0.00,22.3,20.8,00.0,31.0,24.0,12.2,0000.0,0001.40,0007.32,0000.69
2023-03-12 04:49:00,,0822.4,5.00,0.00,22.3,20.8,00.0,31.0,24.0,12.3,0000.0,0001.37,0008.16,0000.68
2023-03-12 04:50:00,,0822.4,5.01,0.00,22.3,20.8,00.0,31.0,24.0,12.2,0000.0,0001.44,0008.04,0000.68
2023-03-12 04:51:00,,0822.4,5.00,0.00,22.3,20.8,00.0,31.0,24.0,12.0,0000.0,0001.47,0008.00,0000.67
2023-03-12 04:52:00,,0822.4,5.01,0.00,22.3,20.8,00.0,31.0,24.0,11.8,0000.0,0001.47,0007.58,0000.66
2023-03-12 04:53:00,,0822.4,5.00,0.00,22.3,20.7,00.0,31.0,24.0,11.7,0000.0,0001.52,0007.41,0000.65
2023-03-12 04:54:00,,0822.3,5.00,0.00,22.2,20.7,00.0,31.0,24.0,11.6,0000.0,0001.46,0006.92,0000.62
2023-03-12 04:55:00,,0822.4,5.00,0.00,22.2,20.7,00.0,31.0,24.0,11.5,0000.0,0001.45,0007.15,0000.60
2023-03-12 04:56:00,,0822.4,5.00,0.00,22.2,20.6,00.0,31.0,23.9,11.3,0000.0,0001.47,0007.27,0000.60
2023-03-12 04:57:00,,0822.4,4.98,0.00,22.2,20.6,00.0,31.0,23.9,11.2,0000.0,0001.51,0007.35,0000.59
2023-03-12 04:58:00,,0822.4,5.01,0.00,22.2,20.6,00.0,31.0,23.9,11.1,0000.0,0001.50,0006.09,0000.56
2023-03-12 04:59:00,,0822.4,5.02,0.00,22.3,21.3,00.0,31.0,24.1,11.1,0000.0,0001.59,0006.29,0000.53
